Regional Weather Roundup
Issued by NWS

Home | Current Version | Previous Version | Text Only | Print | Product List | Glossary On
Versions: 1 2 3 4 5 6 7 8 9 10 11 12 13 14 15 16 17 18 19 20 21 22 23 24 25 26 27 28 29 30 31 32 33 34 35 36 37 38 39 40 41 42 43 44 45 46 47 48 49 50
000
ASUS42 KFFC 171810
RWRGA
WEATHER ROUNDUP FOR GEORGIA
NATIONAL WEATHER SERVICE PEACHTREE CITY GA
100 PM EST SUN DEC 17 2017

NOTE: "FAIR" INDICATES FEW OR NO CLOUDS BELOW 12,000 FEET WITH NO
SIGNIFICANT WEATHER AND/OR OBSTRUCTIONS TO VISIBILITY.

* = USE WITH CAUTION. THE STATIONS MARKED WITH AN ASTERISK MAY NOT
REPORT WEATHER SUCH AS PRECIPITATION, FOG, OR THUNDER AND ARE NOT
QUALITY CONTROLLED BY NWS.

THE REMARK "TC" DENOTES TEMPERATURE READING IN DEGREES CELSIUS.

GAZ001>058-171900-
NORTH GEORGIA

CITY           SKY/WX    TMP DP  RH WIND       PRES   REMARKS
ATLANTA        LGT RAIN  45  38  76 E5        30.22F
6HR MIN TEMP:  36; 6HR MAX TEMP:  49; 6HR PCP:  0.02;

ATHENS         PTSUNNY   53  30  41 CALM      30.24F
6HR MIN TEMP:  30; 6HR MAX TEMP:  53;

CHAMBLEE       CLOUDY    50  31  48 SE5       30.22F
6HR MIN TEMP:  31; 6HR MAX TEMP:  50;

PEACHTREE CITY LGT RAIN  45  43  93 CALM      30.22F FOG
6HR MIN TEMP:  31; 6HR MAX TEMP:  48; 6HR PCP:  0.03;

ROME           LGT RAIN  45  37  73 NE5       30.19F
6HR MIN TEMP:  32; 6HR MAX TEMP:  45; 6HR PCP: TRACE;

WEST ATLANTA   LGT RAIN  48  35  60 SE3       30.22F
6HR MIN TEMP:  30; 6HR MAX TEMP:  48; 6HR PCP: TRACE;

GAINESVILLE    CLOUDY    50  28  42 CALM      30.22F
6HR MIN TEMP:  34; 6HR MAX TEMP:  51;

CARTERSVILLE   CLOUDY    46  33  60 CALM      30.21F
6HR MIN TEMP:  35; 6HR MAX TEMP:  47; 6HR PCP: TRACE;



CITY           SKY/WX    TMP DP  RH WIND       PRES   REMARKS
DALTON*        CLOUDY    41  34  75 CALM      30.22F
LAWRENCEVILLE* PTSUNNY   52  29  41 S6        30.22F
MARIETTA       LGT RAIN  49  31  50 SE6       30.20F
KENNESAW*      CLOUDY    48  31  51 SE6       30.22F
CANTON*        CLOUDY    50  34  53 CALM      30.22F
$$

GAZ059>098-102>109-171900-
CENTRAL GEORGIA

CITY           SKY/WX    TMP DP  RH WIND       PRES   REMARKS
AUGUSTA-BUSH   CLOUDY    60  34  37 CALM      30.24F
6HR MIN TEMP:  27; 6HR MAX TEMP:  60;

AUGUSTA-DANIEL CLOUDY    57  33  40 CALM      30.25F
6HR MIN TEMP:  34; 6HR MAX TEMP:  57;

COLUMBUS       CLOUDY    61  40  45 SE3       30.19F
6HR MIN TEMP:  39; 6HR MAX TEMP:  61;

MACON          CLOUDY    61  37  41 SW7       30.23F
6HR MIN TEMP:  31; 6HR MAX TEMP:  62;

ROBINS AFB     CLOUDY    62  37  39 S3        30.22F


CITY           SKY/WX    TMP DP  RH WIND       PRES   REMARKS
LAGRANGE*      LGT RAIN  48  35  60 CALM      30.19F
SYLVANIA*      SUNNY     61  38  41 S3        30.24F
MILLEDGEVILLE* MOSUNNY   63  36  36 CALM      30.23F
$$

GAZ099>101-110>166-171900-
SOUTH GEORGIA

CITY           SKY/WX    TMP DP  RH WIND       PRES   REMARKS
SAVANNAH       PTSUNNY   65  37  35 S7        30.25F
6HR MIN TEMP:  35; 6HR MAX TEMP:  65;

VALDOSTA       SUNNY     70  54  56 S9        30.22F
6HR MIN TEMP:  42; 6HR MAX TEMP:  70;

ALMA           MOSUNNY   68  49  50 S9        30.21F
6HR MIN TEMP:  37; 6HR MAX TEMP:  68;

ST SIMONS      CLOUDY    63  47  55 E7        30.24F
6HR MIN TEMP:  46; 6HR MAX TEMP:  64;

FT STEWART     SUNNY     66  43  42 S5          N/A
ALBANY         MOSUNNY   72  54  53 S10       30.21F
HUNTER AFB     SUNNY     63  40  43 SE7       30.22F
MOODY AFB      SUNNY     70  53  56 S10       30.20F
BRUNSWICK      CLOUDY    64  45  48 S8        30.25F


CITY           SKY/WX    TMP DP  RH WIND       PRES   REMARKS
BAINBRIDGE*    SUNNY     75  61  60 S8G18     30.20F
MOULTRIE*      SUNNY     68  54  60 S7        30.21F
VIDALIA*       SUNNY     68  41  37 SE6       30.22F
WAYCROSS*      SUNNY     69  51  52 S7        30.23F
DOUGLAS*       SUNNY     66  48  52 S7        30.22F
$$



USA.gov is the U.S. government's official web portal to all federal, state and local government web resources and services.